• In Hungary
  • List of Countries
  • For 7 days
  • Water Temperature
  • Satellite Maps
  • Weather Map
  • News
  • Weather Widgets
  • user-avatar
    Login

    Hourly Weather Chodyrayal

    Today, 23 October, Tuesday

    Time Temperature Precipitation Wind Pressure Humidity
    00:00 +1°C° 0 mm 5 mps 743 mmHg 84%
    01:00 +1°C° 0 mm 4 mps 743 mmHg 88%
    02:00 +1°C° 0 mm 4 mps 742 mmHg 90%
    03:00 +1°C° 0 mm 4 mps 742 mmHg 93%
    04:00 +3°C° 0 mm 4 mps 741 mmHg 93%
    05:00 +3°C° 0 mm 5 mps 741 mmHg 92%
    06:00 +5°C° 0 mm 5 mps 740 mmHg 92%
    07:00 +5°C° 0.1 mm 5 mps 739 mmHg 91%
    08:00 +6°C° 0.1 mm 5 mps 739 mmHg 90%
    09:00 +5°C° 0.1 mm 6 mps 739 mmHg 89%
    10:00 +5°C° 0.5 mm 6 mps 738 mmHg 87%
    11:00 +7°C° 0.5 mm 6 mps 738 mmHg 86%
    12:00 +7°C° 0.5 mm 6 mps 737 mmHg 85%
    13:00 +7°C° 1.2 mm 6 mps 737 mmHg 86%
    14:00 +7°C° 1.2 mm 6 mps 736 mmHg 87%
    15:00 +5°C° 1.2 mm 6 mps 736 mmHg 88%
    16:00 +5°C° 0.8 mm 6 mps 735 mmHg 88%
    17:00 +5°C° 0.8 mm 6 mps 735 mmHg 88%
    18:00 +5°C° 0.8 mm 6 mps 734 mmHg 88%
    19:00 +5°C° 0.5 mm 6 mps 734 mmHg 88%
    20:00 +5°C° 0.5 mm 6 mps 733 mmHg 89%
    21:00 +6°C° 0.5 mm 5 mps 733 mmHg 90%
    22:00 +6°C° 0.2 mm 5 mps 733 mmHg 91%
    23:00 +5°C° 0.2 mm 4 mps 733 mmHg 92%

    Tomorrow, 24 October, Wednesday

    Time Temperature Precipitation Wind Pressure Humidity
    00:00 +5°C° 0.2 mm 3 mps 732 mmHg 93%
    01:00 +4°C° 0 mm 3 mps 732 mmHg 94%
    02:00 +5°C° 0 mm 2 mps 732 mmHg 94%
    03:00 +4°C° 0 mm 2 mps 732 mmHg 95%
    04:00 +3°C° 0 mm 2 mps 732 mmHg 94%
    05:00 +3°C° 0 mm 2 mps 731 mmHg 94%
    06:00 +2°C° 0 mm 3 mps 731 mmHg 94%
    07:00 +3°C° 0 mm 3 mps 731 mmHg 89%
    08:00 +3°C° 0 mm 3 mps 731 mmHg 85%
    09:00 +4°C° 0 mm 4 mps 731 mmHg 80%
    10:00 +5°C° 0 mm 4 mps 731 mmHg 76%
    11:00 +6°C° 0 mm 4 mps 730 mmHg 72%
    12:00 +7°C° 0 mm 5 mps 730 mmHg 67%
    13:00 +7°C° 0 mm 4 mps 730 mmHg 68%
    14:00 +7°C° 0 mm 4 mps 730 mmHg 69%
    15:00 +7°C° 0 mm 4 mps 730 mmHg 70%
    16:00 +6°C° 0 mm 4 mps 730 mmHg 73%
    17:00 +6°C° 0 mm 4 mps 730 mmHg 75%
    18:00 +5°C° 0 mm 4 mps 730 mmHg 78%
    19:00 +5°C° 0.2 mm 4 mps 730 mmHg 78%
    20:00 +5°C° 0.2 mm 4 mps 729 mmHg 78%
    21:00 +6°C° 0.2 mm 4 mps 729 mmHg 78%
    22:00 +6°C° 0 mm 4 mps 729 mmHg 79%
    23:00 +5°C° 0 mm 4 mps 729 mmHg 80%

    Day after tomorrow, 25 October, Thursday

    Time Temperature Precipitation Wind Pressure Humidity
    00:00 +5°C° 0 mm 4 mps 729 mmHg 82%
    01:00 +5°C° 1.9 mm 4 mps 729 mmHg 85%
    02:00 +5°C° 1.9 mm 4 mps 728 mmHg 89%
    03:00 +5°C° 1.9 mm 5 mps 728 mmHg 92%
    04:00 +6°C° 0.9 mm 5 mps 728 mmHg 92%
    05:00 +6°C° 0.9 mm 5 mps 728 mmHg 91%
    06:00 +7°C° 0.9 mm 6 mps 727 mmHg 90%
    07:00 +7°C° 0.4 mm 6 mps 727 mmHg 90%
    08:00 +8°C° 0.4 mm 6 mps 727 mmHg 90%
    09:00 +8°C° 0.4 mm 6 mps 726 mmHg 90%
    10:00 +8°C° 1.1 mm 7 mps 726 mmHg 89%
    11:00 +8°C° 1.1 mm 7 mps 725 mmHg 89%
    12:00 +9°C° 1.1 mm 7 mps 725 mmHg 88%
    13:00 +9°C° 0.5 mm 7 mps 724 mmHg 87%
    14:00 +9°C° 0.5 mm 8 mps 724 mmHg 87%
    15:00 +9°C° 0.5 mm 8 mps 723 mmHg 86%
    16:00 +9°C° 1 mm 8 mps 723 mmHg 84%
    17:00 +8°C° 1 mm 9 mps 723 mmHg 83%
    18:00 +10°C° 1 mm 9 mps 722 mmHg 81%
    19:00 +9°C° 1.1 mm 8 mps 722 mmHg 78%
    20:00 +6°C° 1.1 mm 7 mps 722 mmHg 76%
    21:00 +5°C° 1.1 mm 6 mps 722 mmHg 73%
    22:00 +5°C° 0.1 mm 6 mps 723 mmHg 72%
    23:00 +5°C° 0.1 mm 6 mps 723 mmHg 72%

    26 October, Friday

    Time Temperature Precipitation Wind Pressure Humidity
    00:00 +4°C° 0.1 mm 6 mps 723 mmHg 71%
    01:00 +4°C° 0 mm 6 mps 723 mmHg 73%
    02:00 +4°C° 0 mm 6 mps 724 mmHg 74%
    03:00 +3°C° 0 mm 6 mps 724 mmHg 76%
    04:00 +3°C° 0 mm 6 mps 724 mmHg 77%
    05:00 +2°C° 0 mm 6 mps 724 mmHg 78%
    06:00 +2°C° 0 mm 5 mps 724 mmHg 79%
    07:00 +2°C° 0 mm 6 mps 725 mmHg 77%
    08:00 +2°C° 0 mm 6 mps 725 mmHg 76%
    09:00 +2°C° 0 mm 6 mps 725 mmHg 74%
    10:00 +2°C° 0 mm 6 mps 726 mmHg 72%
    11:00 +2°C° 0 mm 7 mps 726 mmHg 71%
    12:00 +2°C° 0 mm 7 mps 727 mmHg 69%
    13:00 +2°C° 0 mm 7 mps 727 mmHg 69%
    14:00 +2°C° 0 mm 6 mps 728 mmHg 69%
    15:00 +2°C° 0 mm 6 mps 728 mmHg 69%
    16:00 +2°C° 0 mm 6 mps 729 mmHg 71%
    17:00 +2°C° 0 mm 6 mps 729 mmHg 73%
    18:00 +1°C° 0 mm 5 mps 730 mmHg 75%
    19:00 +1°C° 0.1 mm 5 mps 730 mmHg 77%
    20:00 +1°C° 0.1 mm 5 mps 731 mmHg 79%
    21:00 +1°C° 0.1 mm 4 mps 731 mmHg 81%
    22:00 +1°C° 0 mm 4 mps 732 mmHg 81%
    23:00 0°C° 0 mm 4 mps 732 mmHg 81%

    27 October, Saturday

    Time Temperature Precipitation Wind Pressure Humidity
    00:00 0°C° 0 mm 4 mps 732 mmHg 81%
    01:00 0°C° 0 mm 4 mps 733 mmHg 80%
    02:00 0°C° 0 mm 4 mps 733 mmHg 79%
    03:00 0°C° 0 mm 4 mps 734 mmHg 78%
    04:00 0°C° 0 mm 4 mps 734 mmHg 78%
    05:00 0°C° 0 mm 4 mps 734 mmHg 77%
    06:00 0°C° 0 mm 4 mps 735 mmHg 77%
    07:00 0°C° 0 mm 4 mps 735 mmHg 75%
    08:00 0°C° 0 mm 4 mps 736 mmHg 74%
    09:00 0°C° 0 mm 5 mps 736 mmHg 72%
    10:00 +1°C° 0 mm 5 mps 736 mmHg 71%
    11:00 +1°C° 0 mm 5 mps 737 mmHg 70%
    12:00 +2°C° 0 mm 5 mps 737 mmHg 69%
    13:00 +2°C° 0.1 mm 5 mps 738 mmHg 71%
    14:00 +1°C° 0.1 mm 5 mps 738 mmHg 73%
    15:00 +1°C° 0.1 mm 5 mps 738 mmHg 75%
    16:00 +1°C° 0 mm 5 mps 739 mmHg 76%
    17:00 0°C° 0 mm 4 mps 739 mmHg 76%
    18:00 0°C° 0 mm 4 mps 740 mmHg 77%
    19:00 0°C° 0 mm 4 mps 740 mmHg 78%
    20:00 0°C° 0 mm 4 mps 741 mmHg 80%
    21:00 +1°C° 0 mm 3 mps 741 mmHg 81%
    22:00 0°C° 0 mm 3 mps 741 mmHg 84%
    23:00 0°C° 0 mm 3 mps 742 mmHg 86%

    28 October, Sunday

    Time Temperature Precipitation Wind Pressure Humidity
    00:00 -1°C° 0 mm 3 mps 742 mmHg 89%
    01:00 -1°C° 0 mm 3 mps 742 mmHg 88%
    02:00 -1°C° 0 mm 3 mps 742 mmHg 88%
    03:00 -1°C° 0 mm 3 mps 742 mmHg 87%
    04:00 -2°C° 0 mm 4 mps 742 mmHg 88%
    05:00 -1°C° 0 mm 4 mps 742 mmHg 89%
    06:00 -1°C° 0 mm 5 mps 741 mmHg 90%
    07:00 -1°C° 0.2 mm 6 mps 741 mmHg 88%
    08:00 +1°C° 0.2 mm 6 mps 741 mmHg 86%
    09:00 0°C° 0.2 mm 7 mps 740 mmHg 84%
    10:00 +2°C° 0.3 mm 6 mps 740 mmHg 84%
    11:00 +3°C° 0.3 mm 6 mps 740 mmHg 85%
    12:00 +3°C° 0.3 mm 6 mps 740 mmHg 85%
    13:00 +4°C° 0.7 mm 6 mps 740 mmHg 87%
    14:00 +5°C° 0.7 mm 5 mps 740 mmHg 89%
    15:00 +5°C° 0.7 mm 5 mps 740 mmHg 90%
    16:00 +5°C° 0.8 mm 5 mps 740 mmHg 92%
    17:00 +5°C° 0.8 mm 4 mps 740 mmHg 93%
    18:00 +5°C° 0.8 mm 4 mps 740 mmHg 95%
    19:00 +6°C° 0.5 mm 4 mps 740 mmHg 94%
    20:00 +6°C° 0.5 mm 4 mps 740 mmHg 94%
    21:00 +7°C° 0.5 mm 4 mps 740 mmHg 93%
    22:00 +7°C° 0.6 mm 5 mps 740 mmHg 92%
    23:00 +7°C° 0.6 mm 5 mps 740 mmHg 91%

    29 October, Monday

    Time Temperature Precipitation Wind Pressure Humidity
    00:00 +8°C° 0.6 mm 6 mps 740 mmHg 90%
    01:00 +8°C° 0.5 mm 6 mps 739 mmHg 89%
    02:00 +8°C° 0.5 mm 6 mps 739 mmHg 89%
    03:00 +8°C° 0.5 mm 6 mps 739 mmHg 88%
    04:00 +9°C° 0.2 mm 7 mps 739 mmHg 88%
    05:00 +9°C° 0.2 mm 7 mps 738 mmHg 87%
    06:00 +9°C° 0.2 mm 7 mps 738 mmHg 87%
    07:00 +9°C° 0.7 mm 7 mps 738 mmHg 87%
    08:00 +9°C° 0.7 mm 7 mps 739 mmHg 87%
    09:00 +9°C° 0.7 mm 7 mps 739 mmHg 86%
    10:00 +9°C° 0.1 mm 7 mps 739 mmHg 85%
    11:00 +10°C° 0.1 mm 7 mps 739 mmHg 83%
    12:00 +10°C° 0.1 mm 7 mps 739 mmHg 81%
    13:00 +10°C° 0.1 mm 8 mps 740 mmHg 81%
    14:00 +11°C° 0.1 mm 8 mps 740 mmHg 81%
    15:00 +11°C° 0.1 mm 8 mps 741 mmHg 81%
    16:00 +10°C° 0 mm 7 mps 742 mmHg 79%
    17:00 +8°C° 0 mm 7 mps 743 mmHg 77%
    18:00 +7°C° 0 mm 6 mps 743 mmHg 74%
    19:00 +5°C° 0 mm 6 mps 744 mmHg 76%
    20:00 +5°C° 0 mm 5 mps 745 mmHg 77%
    21:00 +3°C° 0 mm 5 mps 746 mmHg 78%
    22:00 +3°C° 0 mm 5 mps 747 mmHg 79%
    23:00 +4°C° 0 mm 4 mps 748 mmHg 79%
    Show more